Location: ??????????
(44.2167°N, 135.5333°E)
Time: 14:45:39
(UTC+00:00)

H-2A R/B - Pass Details

Date: 15 June 2025
Orbit: 556 x 620 km, 98.4° (Epoch: 15 July)

Event Time Altitude Azimuth Distance (km) Brightness Sun altitude
Rises 17:13:48 0° 11° (N) 2,749 6.7 -15.7°
Reaches altitude 10° 17:15:57 10° 8° (N) 1,851 5.6 -15.5°
Maximum altitude 17:19:54 67° 286° (WNW) 612 1.9 -15.1°
Enters shadow 17:21:58 27° 211° (SSW) 1,100 2.7 -14.9°
